Year,Month,Day,Hour,Minute,Value (Times are PST for temperature in C)
2015,01,29,08,30,5.30
2015,01,29,08,31,5.30
2015,01,29,08,32,5.30
2015,01,29,08,33,5.30
2015,01,29,08,34,5.30
2015,01,29,08,35,5.30
2015,01,29,08,36,5.30
2015,01,29,08,37,5.30
2015,01,29,08,38,5.30
2015,01,29,08,39,5.30
2015,01,29,08,40,5.30
2015,01,29,08,41,5.30
2015,01,29,10,22,6.20
2015,01,29,10,23,6.20
2015,01,29,10,24,6.20
2015,01,29,10,25,6.20
2015,01,29,10,26,6.20
2015,01,29,10,27,6.20
2015,01,29,10,28,6.20
2015,01,29,10,29,6.20
2015,01,29,10,30,6.20
2015,01,29,10,31,6.20
2015,01,29,10,32,6.20
2015,01,29,10,33,6.20
2015,01,29,10,34,6.20
2015,01,29,10,35,6.30
2015,01,29,10,36,6.30
2015,01,29,10,37,6.30
2015,01,29,10,38,6.30
2015,01,29,10,39,6.30
2015,01,29,10,40,6.30
2015,01,29,10,41,6.30
2015,01,29,10,42,6.40
2015,01,29,10,43,6.40
2015,01,29,10,44,6.40
2015,01,29,10,45,6.40
2015,01,29,10,46,6.40
2015,01,29,10,47,6.40
2015,01,29,10,48,6.40
2015,01,29,10,49,6.40
2015,01,29,10,50,6.50
2015,01,29,10,51,6.60
2015,01,29,10,52,6.60
2015,01,29,10,53,6.60
2015,01,29,10,54,6.60
2015,01,29,10,55,6.60
2015,01,29,10,56,6.60
2015,01,29,10,57,6.60
2015,01,29,10,58,6.60
2015,01,29,10,59,6.60
2015,01,29,11,00,6.60
2015,01,29,11,01,6.60
2015,01,29,11,02,6.60
2015,01,29,11,03,6.60
2015,01,29,11,04,6.60
2015,01,29,11,05,6.70
2015,01,29,11,06,6.70
2015,01,29,11,07,6.70
2015,01,29,11,08,6.70
2015,01,29,11,09,6.70
2015,01,29,11,10,6.70
2015,01,29,11,11,6.80
2015,01,29,11,12,6.80
2015,01,29,11,13,6.80
2015,01,29,11,14,6.80
2015,01,29,11,15,6.80
2015,01,29,11,16,6.80
2015,01,29,11,17,6.90
2015,01,29,11,18,6.90
2015,01,29,11,19,6.90
2015,01,29,11,20,6.90
2015,01,29,11,21,6.90
2015,01,29,11,22,7.00
2015,01,29,11,23,7.00
2015,01,29,11,24,7.00
2015,01,29,11,25,7.00
2015,01,29,11,26,7.10
2015,01,29,11,27,7.00
2015,01,29,11,28,7.00
2015,01,29,11,29,6.90
2015,01,29,11,30,7.00
2015,01,29,11,31,7.00
2015,01,29,11,32,7.00
2015,01,29,11,33,7.00
2015,01,29,11,34,7.00
2015,01,29,11,35,7.00
2015,01,29,11,36,7.00
2015,01,29,11,37,7.00
2015,01,29,11,38,7.00
2015,01,29,11,39,7.00
2015,01,29,11,40,7.00
2015,01,29,11,41,7.00
2015,01,29,11,42,7.00
2015,01,29,11,43,7.10
2015,01,29,11,44,7.10
2015,01,29,11,45,7.10
2015,01,29,11,46,7.10
2015,01,29,11,47,7.10
2015,01,29,11,48,7.20
2015,01,29,11,49,7.20
2015,01,29,11,50,7.20
2015,01,29,11,51,7.20
2015,01,29,11,52,7.30
2015,01,29,11,53,7.30
2015,01,29,11,54,7.40
2015,01,29,11,55,7.50
2015,01,29,11,56,7.50
2015,01,29,11,57,7.50
2015,01,29,11,58,7.50
2015,01,29,11,59,7.50
2015,01,29,12,00,7.50
2015,01,29,12,01,7.50
2015,01,29,12,02,7.50
2015,01,29,12,03,7.50
2015,01,29,12,04,7.50
2015,01,29,12,05,7.50
2015,01,29,12,06,7.50
2015,01,29,12,07,7.50
2015,01,29,12,08,7.50
2015,01,29,12,09,7.40
2015,01,29,12,10,7.40
2015,01,29,12,11,7.40
2015,01,29,12,12,7.40
2015,01,29,12,13,7.40
2015,01,29,12,14,7.40
2015,01,29,12,15,7.40
2015,01,29,12,16,7.40
2015,01,29,12,17,7.40
2015,01,29,12,18,7.40
2015,01,29,12,19,7.40
2015,01,29,12,20,7.40
2015,01,29,12,21,7.40
2015,01,29,12,22,7.40
2015,01,29,12,23,7.50
2015,01,29,12,24,7.50
2015,01,29,12,25,7.50
2015,01,29,12,26,7.50
2015,01,29,12,27,7.50
2015,01,29,12,28,7.50
2015,01,29,12,29,7.60
2015,01,29,12,30,7.50
2015,01,29,12,31,7.50
2015,01,29,12,32,7.60
2015,01,29,12,33,7.60
2015,01,29,12,34,7.60
2015,01,29,12,35,7.60
2015,01,29,12,36,7.60
2015,01,29,12,37,7.60
2015,01,29,12,38,7.60
2015,01,29,12,39,7.70
2015,01,29,12,40,7.70
2015,01,29,12,41,7.70
2015,01,29,12,42,7.80
2015,01,29,12,43,7.80
2015,01,29,12,44,7.80
2015,01,29,12,45,7.80
2015,01,29,12,46,7.80
2015,01,29,12,47,7.80
2015,01,29,12,48,7.80
2015,01,29,12,49,7.80
2015,01,29,12,50,7.80
2015,01,29,12,51,7.80
2015,01,29,12,52,7.80
2015,01,29,12,53,7.80
2015,01,29,12,54,7.80
2015,01,29,12,55,7.90
2015,01,29,12,56,7.90
2015,01,29,12,57,7.90
2015,01,29,12,58,7.90
2015,01,29,12,59,7.90
2015,01,29,13,00,7.90
2015,01,29,13,01,7.90
2015,01,29,13,02,7.90
2015,01,29,13,03,7.80
2015,01,29,13,04,7.80
2015,01,29,13,05,7.80
2015,01,29,13,06,7.80
2015,01,29,13,07,7.90
2015,01,29,13,08,7.90
2015,01,29,13,09,7.90
2015,01,29,13,10,8.00
2015,01,29,13,11,8.00
2015,01,29,13,12,8.00
2015,01,29,13,13,8.00
2015,01,29,13,14,8.10
2015,01,29,13,15,8.20
2015,01,29,13,16,8.20
2015,01,29,13,17,8.20
2015,01,29,13,18,8.30
2015,01,29,13,19,8.30
2015,01,29,13,20,8.30
2015,01,29,13,21,8.40
2015,01,29,13,22,8.40
2015,01,29,13,23,8.50
2015,01,29,13,24,8.50
2015,01,29,13,25,8.60
2015,01,29,13,26,8.70
2015,01,29,13,27,8.70
2015,01,29,13,28,8.70
2015,01,29,13,29,8.70
2015,01,29,13,30,8.70
2015,01,29,13,31,8.80
2015,01,29,13,32,8.80
2015,01,29,13,33,8.80
2015,01,29,13,34,8.80
2015,01,29,13,35,8.90
2015,01,29,13,36,8.90
2015,01,29,13,37,8.90
2015,01,29,13,38,9.00
2015,01,29,13,39,9.00
2015,01,29,13,40,9.10
2015,01,29,13,41,9.20
2015,01,29,13,42,9.20
2015,01,29,13,43,9.20
2015,01,29,13,44,9.20
2015,01,29,13,45,9.30
2015,01,29,13,46,9.30
2015,01,29,13,47,9.40
2015,01,29,13,48,9.40
2015,01,29,13,49,9.50
2015,01,29,13,50,9.60
2015,01,29,13,51,9.60
2015,01,29,13,52,9.60
2015,01,29,13,53,9.70
2015,01,29,13,54,9.70
2015,01,29,13,55,9.90
2015,01,29,13,56,9.90
2015,01,29,13,57,9.90
2015,01,29,13,58,10.00
2015,01,29,13,59,10.10
2015,01,29,14,00,10.10
2015,01,29,14,01,10.10
2015,01,29,14,02,10.10
2015,01,29,14,03,10.20
2015,01,29,14,04,10.30
2015,01,29,14,05,10.30
2015,01,29,14,06,10.30
2015,01,29,14,07,10.30
2015,01,29,14,08,10.30
2015,01,29,14,09,10.40
2015,01,29,14,10,10.40
2015,01,29,14,11,10.40
2015,01,29,14,12,10.40
2015,01,29,14,13,10.40
2015,01,29,14,14,10.40
2015,01,29,14,15,10.40
2015,01,29,14,16,10.40
2015,01,29,14,17,10.40
2015,01,29,14,18,10.40
2015,01,29,14,19,10.40
2015,01,29,14,20,10.30
2015,01,29,14,21,10.30
2015,01,29,14,22,10.20
2015,01,29,14,23,10.10
2015,01,29,14,24,10.00
2015,01,29,14,25,9.90
2015,01,29,14,26,9.80
2015,01,29,14,27,9.80
2015,01,29,14,28,9.70
2015,01,29,14,29,9.70
2015,01,29,14,30,9.70
2015,01,29,14,31,9.70
2015,01,29,14,32,9.70
2015,01,29,14,33,9.70
2015,01,29,14,34,9.70
2015,01,29,14,35,9.70
2015,01,29,14,36,9.60
2015,01,29,14,37,9.50
2015,01,29,14,38,9.50
2015,01,29,14,39,9.60
2015,01,29,14,40,9.50
2015,01,29,14,41,9.50
2015,01,29,14,42,9.60
2015,01,29,14,43,9.70
2015,01,29,14,44,9.70
2015,01,29,14,45,9.60
2015,01,29,14,46,9.60
2015,01,29,14,47,9.60
2015,01,29,14,48,9.70
2015,01,29,14,49,9.70
2015,01,29,14,50,9.60
2015,01,29,14,51,9.50
2015,01,29,14,52,9.50
2015,01,29,14,53,9.40
2015,01,29,14,54,9.40
2015,01,29,14,55,9.40
2015,01,29,14,56,9.40
2015,01,29,14,57,9.40
2015,01,29,14,58,9.50
2015,01,29,14,59,9.50
2015,01,29,15,00,9.50
2015,01,29,15,01,9.50
2015,01,29,15,02,9.60
2015,01,29,15,03,9.50
2015,01,29,15,04,9.50
2015,01,29,15,05,9.60
2015,01,29,15,06,9.60
2015,01,29,15,07,9.60
2015,01,29,15,08,9.50
2015,01,29,15,09,9.50
2015,01,29,15,10,9.50
2015,01,29,15,11,9.40
2015,01,29,15,12,9.50
2015,01,29,15,13,9.50
2015,01,29,15,14,9.50
2015,01,29,15,15,9.40
2015,01,29,15,16,9.40
2015,01,29,15,17,9.40
2015,01,29,15,18,9.40
2015,01,29,15,19,9.40
2015,01,29,15,20,9.40
2015,01,29,15,21,9.50
2015,01,29,15,22,9.60
2015,01,29,15,23,9.60
2015,01,29,15,24,9.60
2015,01,29,15,25,9.60
2015,01,29,15,26,9.60
2015,01,29,15,27,9.60
2015,01,29,15,28,9.60
2015,01,29,15,29,9.60
2015,01,29,15,30,9.50
2015,01,29,15,31,9.50
2015,01,29,15,32,9.60
2015,01,29,15,33,9.60
2015,01,29,15,34,9.60
2015,01,29,15,35,9.60
2015,01,29,15,36,9.50
2015,01,29,15,37,9.40
2015,01,29,15,38,9.40
2015,01,29,15,39,9.30
2015,01,29,15,40,9.20
2015,01,29,15,41,9.00
2015,01,29,15,42,8.90
2015,01,29,15,43,8.70
2015,01,29,15,44,8.70
2015,01,29,15,45,8.70
2015,01,29,15,46,8.70
2015,01,29,15,47,8.70
2015,01,29,15,48,8.60
2015,01,29,15,49,8.60
2015,01,29,15,50,8.50
2015,01,29,15,51,8.50
2015,01,29,15,52,8.50
2015,01,29,15,53,8.50
2015,01,29,15,54,8.40
2015,01,29,15,55,8.40
2015,01,29,15,56,8.40
2015,01,29,15,57,8.30
2015,01,29,15,58,8.30
2015,01,29,15,59,8.30
2015,01,29,16,00,8.20
2015,01,29,16,01,8.20
2015,01,29,16,02,8.20
2015,01,29,16,03,8.20
2015,01,29,16,04,8.10
2015,01,29,16,05,8.10
2015,01,29,16,06,8.10
2015,01,29,16,07,8.10
2015,01,29,16,08,8.10
2015,01,29,16,09,8.00
2015,01,29,16,10,8.00
2015,01,29,16,11,8.00
2015,01,29,16,12,8.00
2015,01,29,16,13,7.90
2015,01,29,16,14,7.90
2015,01,29,16,15,7.90
2015,01,29,16,16,7.90
2015,01,29,16,17,7.90
2015,01,29,16,18,7.80
2015,01,29,16,19,7.80
2015,01,29,16,20,7.80
2015,01,29,16,21,7.80
2015,01,29,16,22,7.70
2015,01,29,16,23,7.70
2015,01,29,16,24,7.70
2015,01,29,16,25,7.60
2015,01,29,16,26,7.60
2015,01,29,16,27,7.50
2015,01,29,16,28,7.40
2015,01,29,16,29,7.30
2015,01,29,16,30,7.30
2015,01,29,16,31,7.30
2015,01,29,16,32,7.30
2015,01,29,16,33,7.30
2015,01,29,16,34,7.20
2015,01,29,16,35,7.20
2015,01,29,16,36,7.20
2015,01,29,16,37,7.20
2015,01,29,16,38,7.20
2015,01,29,16,39,7.20
2015,01,29,16,40,7.20
2015,01,29,16,41,7.20
2015,01,29,16,42,7.20
2015,01,29,16,43,7.20
2015,01,29,16,44,7.20
2015,01,29,16,45,7.20
2015,01,29,16,46,7.20
2015,01,29,16,47,7.20
